GW1480 Weather Reports


time (UTC)temp
F
wind
direction
speed
knots
gust
knots
rain 1hr
in
rain 24hr
in
rain mn
in
humidity
%
barometer
mb
20260508130308 49 118 1.7 4.3 0.00 0.00 0.00 73 1019.6
20260508125126 46 132 0.0 0.0 0.00 0.00 0.00 80 1019.6
20260508123936 43 76 0.0 1.7 0.00 0.00 0.00 97 1019.3
20260508123350 42 77 0.0 0.0 0.00 0.00 0.00 98 1019.3
20260508122731 40 140 0.0 0.0 0.00 0.00 0.00 98 1019.3
20260508122120 39 86 0.0 0.0 0.00 0.00 0.00 98 1019.3
20260508121537 37 87 1.7 4.3 0.00 0.00 0.00 98 1019.3
20260508120920 36 219 0.0 0.0 0.00 0.00 0.00 98 1019.3
20260508115710 34 222 0.0 0.0 0.00 0.00 0.00 98 1019.3
20260508115148 34 227 0.0 0.0 0.00 0.00 0.00 98 1019.6
20260508114519 34 226 0.0 0.0 0.00 0.00 0.00 98 1019.3
20260508113930 34 232 0.0 0.0 0.00 0.00 0.00 98 1019.3
20260508113316 33 230 0.0 0.0 0.00 0.00 0.00 98 1018.9
20260508112719 33 235 0.0 0.0 0.00 0.00 0.00 98 1019.6
20260508112143 33 230 0.0 0.0 0.00 0.00 0.00 98 1018.9
20260508111542 33 232 0.0 0.0 0.00 0.00 0.00 98 1018.9
20260508110922 33 228 0.0 0.0 0.00 0.00 0.00 98 1018.9
20260508110326 33 226 0.0 0.0 0.00 0.00 0.00 98 1018.9
20260508105142 33 232 0.0 0.0 0.00 0.00 0.00 98 1018.9
20260508103936 33 226 0.0 0.0 0.00 0.00 0.00 98 1018.9
20260508103338 33 230 0.0 0.0 0.00 0.00 0.00 98 1018.9
20260508102715 33 226 0.0 0.0 0.00 0.00 0.00 98 1018.6
20260508102115 33 234 0.0 0.0 0.00 0.00 0.00 98 1018.9
20260508101512 33 232 0.0 0.0 0.00 0.00 0.00 98 1018.6
20260508100938 33 240 0.0 0.0 0.00 0.00 0.00 98 1018.9
20260508100331 33 235 0.0 0.0 0.00 0.00 0.00 98 1018.2
20260508095748 33 228 0.0 0.0 0.00 0.00 0.00 98 1018.6
20260508095130 33 229 0.0 0.0 0.00 0.00 0.00 98 1018.6
20260508094522 34 228 0.0 0.0 0.00 0.00 0.00 98 1018.2
20260508093943 34 230 0.0 0.0 0.00 0.00 0.00 98 1018.2
20260508092722 33 226 0.0 0.0 0.00 0.00 0.00 98 1018.2
20260508092142 33 228 0.0 0.0 0.00 0.00 0.00 98 1018.2
20260508091528 33 226 0.0 0.0 0.00 0.00 0.00 98 1018.2
20260508090932 34 224 0.0 0.0 0.00 0.00 0.00 98 1018.6
20260508085139 34 237 0.0 0.0 0.00 0.00 0.00 98 1018.2
20260508084547 34 226 0.0 0.0 0.00 0.00 0.00 98 1018.2
20260508083912 34 228 0.0 0.0 0.00 0.00 0.00 98 1018.2
20260508083313 34 229 0.0 0.0 0.00 0.00 0.00 98 1018.2
20260508082735 34 229 0.0 0.0 0.00 0.00 0.00 98 1018.2
20260508082150 34 229 0.0 0.0 0.00 0.00 0.00 98 1017.9
20260508081537 34 233 0.0 0.0 0.00 0.00 0.00 98 1018.2
20260508080328 34 220 0.0 0.0 0.00 0.00 0.00 98 1018.2
20260508075731 34 222 0.0 0.0 0.00 0.00 0.00 98 1017.9
20260508075120 34 226 0.0 0.0 0.00 0.00 0.00 98 1018.2
20260508074529 34 228 0.0 0.0 0.00 0.00 0.00 98 1017.9
20260508073327 34 227 0.0 0.0 0.00 0.00 0.00 98 1018.2
20260508072733 34 227 0.0 0.0 0.00 0.00 0.00 98 1017.9
20260508072115 35 229 0.0 0.0 0.00 0.00 0.00 98 1018.2
20260508071537 35 229 0.0 0.0 0.00 0.00 0.00 98 1018.2
20260508070951 35 229 0.0 0.0 0.00 0.00 0.00 98 1017.9
20260508070338 35 227 0.0 0.0 0.00 0.00 0.00 98 1017.9
20260508065738 35 226 0.0 0.0 0.00 0.00 0.00 98 1017.9
20260508065133 35 230 0.0 0.0 0.00 0.00 0.00 98 1017.9
20260508064520 35 240 0.0 0.0 0.00 0.00 0.00 98 1018.2
20260508063925 35 226 0.0 0.0 0.00 0.00 0.00 98 1017.9
20260508063318 35 226 0.0 0.0 0.00 0.00 0.00 98 1018.2
20260508062742 35 226 0.0 0.0 0.00 0.00 0.00 98 1018.6
20260508062146 35 233 0.0 0.0 0.00 0.00 0.00 98 1018.2
20260508061530 35 229 0.0 0.0 0.00 0.00 0.00 98 1018.2
20260508060909 35 230 0.0 0.0 0.00 0.00 0.00 98 1018.2
20260508060341 35 229 0.0 0.0 0.00 0.00 0.00 98 1018.2
20260508055751 35 230 0.0 0.0 0.00 0.00 0.00 98 1018.2
20260508055141 36 229 0.0 0.0 0.00 0.00 0.00 98 1018.2
20260508054544 36 229 0.0 0.0 0.00 0.00 0.00 98 1018.2
20260508052738 36 229 0.0 0.0 0.00 0.00 0.00 98 1017.9
20260508052132 36 227 0.0 0.0 0.00 0.00 0.00 98 1018.2
20260508051526 36 227 0.0 0.0 0.00 0.00 0.00 98 1017.9
20260508050945 36 227 0.0 0.0 0.00 0.00 0.00 97 1018.2
20260508050309 36 227 0.0 0.0 0.00 0.00 0.00 98 1018.2
20260508045724 36 229 0.0 0.0 0.00 0.00 0.00 98 1018.2
20260508045128 37 232 0.0 0.0 0.00 0.00 0.00 97 1018.2
20260508044542 37 229 0.0 0.0 0.00 0.00 0.00 97 1018.2
20260508043936 37 229 0.0 0.0 0.00 0.00 0.00 97 1018.2
20260508043347 37 229 0.0 0.0 0.00 0.00 0.00 97 1017.9
20260508042723 37 229 0.0 0.0 0.00 0.00 0.00 97 1017.9
20260508042141 37 229 0.0 0.0 0.00 0.00 0.00 97 1018.2
20260508041532 37 226 0.0 0.0 0.00 0.00 0.00 97 1017.9
20260508040318 38 226 0.0 0.0 0.00 0.00 0.00 97 1018.2
20260508035120 38 228 0.0 0.0 0.00 0.00 0.00 97 1018.2
20260508034526 38 229 0.0 0.0 0.00 0.00 0.00 97 1018.2
20260508033916 38 229 0.0 0.0 0.00 0.00 0.00 97 1018.2
20260508033321 38 229 0.0 0.0 0.00 0.00 0.00 96 1018.6
20260508032734 38 229 0.0 0.0 0.00 0.00 0.00 96 1018.6
20260508032147 39 229 0.0 0.0 0.00 0.00 0.00 96 1017.9
20260508031526 39 230 0.0 0.0 0.00 0.00 0.00 96 1018.2
20260508030931 39 227 0.0 0.0 0.00 0.00 0.00 96 1017.9
20260508030311 39 230 0.0 0.0 0.00 0.00 0.00 96 1017.9
20260508025719 40 228 0.0 0.0 0.00 0.00 0.00 96 1017.9
20260508025114 40 229 0.0 0.0 0.00 0.00 0.00 95 1017.9
20260508024525 40 229 0.0 0.0 0.00 0.00 0.00 95 1017.9
20260508023946 40 228 0.0 0.0 0.00 0.00 0.00 95 1017.9
20260508023341 41 228 0.0 0.0 0.00 0.00 0.00 95 1017.6
20260508022723 41 235 0.0 0.0 0.00 0.00 0.00 95 1017.6
20260508021515 42 229 0.0 0.0 0.00 0.00 0.00 95 1017.2
20260508020945 42 230 0.0 0.0 0.00 0.00 0.00 95 1017.2
20260508020349 42 234 0.0 0.0 0.00 0.00 0.00 95 1017.2
20260508015738 43 230 0.0 0.0 0.00 0.00 0.00 94 1017.2
20260508015145 43 227 0.0 0.0 0.00 0.00 0.00 93 1017.2
20260508014517 44 227 0.0 0.0 0.00 0.00 0.00 93 1016.9
20260508012725 45 228 0.0 0.0 0.00 0.00 0.00 91 1016.9
20260508011528 46 227 0.0 0.0 0.00 0.00 0.00 91 1016.5
20260508010935 47 222 0.0 0.0 0.00 0.00 0.00 90 1016.5
20260508010349 48 229 0.0 0.0 0.00 0.00 0.00 89 1016.5
20260508005736 48 224 0.0 0.0 0.00 0.00 0.00 88 1016.5
20260508003908 50 228 0.0 0.0 0.00 0.00 0.00 85 1016.2
20260508003340 51 226 0.0 0.0 0.00 0.00 0.00 85 1016.2
20260508002734 52 206 0.0 0.0 0.00 0.00 0.00 85 1016.2
20260508002110 52 223 0.0 0.0 0.00 0.00 0.00 83 1016.2
20260508001532 53 220 0.0 0.0 0.00 0.00 0.00 81 1015.9
20260508000949 54 241 0.0 0.0 0.00 0.00 0.00 78 1015.9
20260508000335 55 261 0.0 0.0 0.00 0.00 0.00 76 1015.5
20260507235747 56 257 0.0 0.0 0.00 0.00 0.00 73 1015.5
20260507235119 57 244 0.0 0.0 0.00 0.00 0.00 73 1015.9
20260507234551 58 288 0.0 0.0 0.00 0.00 0.00 71 1015.5
20260507233938 60 199 0.0 0.0 0.00 0.00 0.00 68 1015.2
20260507233347 61 254 0.0 0.0 0.00 0.00 0.00 65 1015.2
20260507231535 63 240 1.7 1.7 0.00 0.00 0.00 55 1015.2
20260507225744 64 198 5.2 8.7 0.00 0.00 0.00 46 1015.2
20260507225120 64 253 3.5 6.1 0.00 0.00 0.00 50 1015.2
20260507224527 64 252 3.5 4.3 0.00 0.00 0.00 51 1015.2
20260507223918 64 249 4.3 6.1 0.00 0.00 0.00 51 1015.2
20260507223338 64 258 4.3 6.1 0.00 0.00 0.00 48 1015.2
20260507222719 64 251 2.6 4.3 0.00 0.00 0.00 47 1014.9
20260507221516 64 222 3.5 8.7 0.00 0.00 0.00 50 1015.2
20260507220312 63 203 2.6 4.3 0.00 0.00 0.00 48 1014.9
20260507215738 63 251 3.5 4.3 0.00 0.00 0.00 50 1014.9
20260507215144 64 243 0.0 0.0 0.00 0.00 0.00 56 1014.5
20260507213944 65 251 0.0 0.0 0.00 0.00 0.00 47 1014.5
20260507212737 66 278 0.9 4.3 0.00 0.00 0.00 44 1014.5
20260507211532 65 250 2.6 4.3 0.00 0.00 0.00 46 1014.2
20260507210928 64 252 4.3 6.1 0.00 0.00 0.00 46 1014.2
20260507210344 64 250 3.5 4.3 0.00 0.00 0.00 47 1014.2
20260507204547 64 280 2.6 4.3 0.00 0.00 0.00 53 1014.5
20260507202737 65 285 4.3 6.1 0.00 0.00 0.00 48 1014.5
20260507202152 65 137 0.0 1.7 0.00 0.00 0.00 47 1014.5
20260507201538 65 184 1.7 4.3 0.00 0.00 0.00 48 1014.2
20260507200938 66 294 4.3 6.1 0.00 0.00 0.00 49 1014.5
20260507195752 65 200 6.1 10.4 0.00 0.00 0.00 48 1014.5
20260507195151 65 210 0.9 4.3 0.00 0.00 0.00 47 1014.5
20260507194514 65 220 3.5 4.3 0.00 0.00 0.00 44 1014.5
20260507193951 65 245 1.7 4.3 0.00 0.00 0.00 49 1014.5
20260507192732 65 262 2.6 4.3 0.00 0.00 0.00 50 1014.9
20260507192146 65 263 0.9 1.7 0.00 0.00 0.00 46 1014.9
20260507191535 65 217 2.6 4.3 0.00 0.00 0.00 46 1014.9
20260507190936 65 215 1.7 1.7 0.00 0.00 0.00 51 1015.2
20260507185724 64 240 0.9 1.7 0.00 0.00 0.00 51 1015.2
20260507185150 64 273 0.0 1.7 0.00 0.00 0.00 47 1014.9
20260507184549 63 26 6.1 8.7 0.00 0.00 0.00 53 1015.2
20260507183952 63 212 1.7 4.3 0.00 0.00 0.00 53 1015.2
20260507183308 63 251 0.0 1.7 0.00 0.00 0.00 55 1015.5
20260507182714 64 357 5.2 6.1 0.00 0.00 0.00 56 1015.2
20260507182150 64 207 0.0 1.7 0.00 0.00 0.00 57 1015.2
20260507181510 64 233 0.0 4.3 0.00 0.00 0.00 58 1015.2
20260507180928 65 263 2.6 4.3 0.00 0.00 0.00 53 1015.2
20260507180324 64 348 3.5 4.3 0.00 0.00 0.00 56 1015.2
20260507174520 64 243 5.2 6.1 0.00 0.00 0.00 55 1015.5
20260507173945 63 295 0.9 4.3 0.00 0.00 0.00 54 1015.5
20260507172732 62 285 1.7 4.3 0.00 0.00 0.00 58 1015.5
20260507172129 61 233 3.5 6.1 0.00 0.00 0.00 62 1015.5
20260507170911 60 286 0.0 0.0 0.00 0.00 0.00 56 1015.9
20260507170321 60 264 0.0 0.0 0.00 0.00 0.00 63 1015.9
20260507165750 60 235 0.0 0.0 0.00 0.00 0.00 71 1016.2
20260507165135 60 218 0.0 0.0 0.00 0.00 0.00 64 1015.9
20260507163923 61 245 0.0 0.0 0.00 0.00 0.00 65 1016.2
20260507162722 61 273 0.0 1.7 0.00 0.00 0.00 64 1016.2
20260507162152 61 237 0.0 0.0 0.00 0.00 0.00 61 1015.9
20260507161555 60 217 0.0 0.0 0.00 0.00 0.00 61 1016.2
20260507160923 60 276 0.0 0.0 0.00 0.00 0.00 65 1016.2
20260507160346 60 296 0.9 4.3 0.00 0.00 0.00 63 1016.2
20260507155731 60 261 0.0 0.0 0.00 0.00 0.00 64 1016.2
20260507155123 60 287 0.0 0.0 0.00 0.00 0.00 62 1016.5
20260507154519 60 192 0.0 0.0 0.00 0.00 0.00 68 1016.5
20260507153911 61 211 0.0 0.0 0.00 0.00 0.00 62 1016.2
20260507153316 61 240 2.6 4.3 0.00 0.00 0.00 61 1016.2
20260507152750 60 162 2.6 4.3 0.00 0.00 0.00 60 1016.2
20260507151534 59 240 0.0 0.0 0.00 0.00 0.00 61 1016.2
20260507150347 58 242 0.0 0.0 0.00 0.00 0.00 64 1016.5
20260507145715 58 275 0.0 1.7 0.00 0.00 0.00 67 1016.9
20260507145111 59 230 0.9 1.7 0.00 0.00 0.00 72 1016.9
20260507144515 59 274 1.7 4.3 0.00 0.00 0.00 68 1016.5
20260507143939 58 189 0.0 0.0 0.00 0.00 0.00 63 1016.5
20260507143320 58 170 0.0 0.0 0.00 0.00 0.00 69 1016.5
20260507142123 57 218 0.0 0.0 0.00 0.00 0.00 72 1016.2
20260507141518 56 223 0.0 0.0 0.00 0.00 0.00 75 1016.5
20260507140926 56 202 0.0 0.0 0.00 0.00 0.00 76 1016.9
20260507140342 55 215 0.0 0.0 0.00 0.00 0.00 78 1016.9
20260507135143 55 262 0.0 0.0 0.00 0.00 0.00 79 1016.9
20260507134519 54 187 0.0 0.0 0.00 0.00 0.00 84 1017.2
20260507133319 54 264 0.0 0.0 0.00 0.00 0.00 86 1017.2
20260507132743 54 238 0.0 0.0 0.00 0.00 0.00 88 1016.9
20260507132122 54 265 0.0 0.0 0.00 0.00 0.00 89 1017.2